Wind_Speed
49 50 50 50 50 50 49 49 48 47 47 46 46 46 47 47 46 46 46 46 46 46 45 44 44 43 42 41 41 40 40 40 39 39 37 37 36 35
49 50 51 51 51 50 50 50 51 50 49 48 48 49 49 48 48 48 48 48 47 47 46 45 45 44 43 42 42 41 40 40 39 39 38 37 36 34
50 51 52 52 52 52 52 52 52 52 52 52 51 51 50 50 49 49 49 49 48 46 46 44 44 44 43 42 42 41 40 40 39 38 37 36 35 33
49 51 51 52 54 55 54 53 53 53 53 52 52 51 50 49 50 51 51 50 49 48 48 46 45 44 43 42 41 40 40 39 39 38 37 36 35 33
51 52 53 54 55 56 55 54 54 55 55 55 54 53 52 50 51 51 51 50 50 51 49 47 46 44 43 43 42 41 40 40 39 38 37 35 33 32
52 54 54 55 56 56 56 56 57 57 57 57 57 55 54 53 53 52 52 51 50 50 48 47 46 45 44 43 43 41 40 39 38 37 36 34 33 31
54 56 57 57 58 59 60 59 60 59 59 58 58 57 57 56 56 55 55 54 52 49 48 47 46 45 45 44 42 41 40 39 38 36 35 33 32 30
56 56 58 59 60 61 62 63 62 62 62 61 60 59 59 59 59 58 57 55 52 51 49 48 47 46 45 44 43 42 40 39 38 35 34 32 31 30
60 60 61 62 63 64 64 65 66 66 66 64 62 61 61 61 61 60 58 57 54 52 50 48 48 46 45 43 42 41 39 38 36 34 33 32 31 29
63 63 64 65 67 68 68 68 68 68 68 67 66 65 64 63 62 60 59 58 55 52 51 50 49 47 45 43 41 40 38 37 35 33 32 31 30 29
65 66 67 68 69 70 71 70 70 70 70 69 68 66 65 64 63 61 60 58 55 54 53 51 49 47 45 43 41 39 38 36 34 33 32 31 30 29
67 68 69 71 72 73 73 72 70 69 69 68 67 66 65 64 63 61 60 57 56 55 53 51 49 46 44 42 40 38 36 35 33 32 31 31 30 29
69 69 70 71 72 72 72 71 70 69 68 67 67 65 65 64 62 61 59 58 57 55 52 50 47 45 43 41 39 37 35 34 32 32 31 31 30 29
70 70 70 69 69 69 69 69 69 69 69 68 66 65 65 64 62 60 59 58 56 53 51 48 46 44 42 41 39 37 35 33 32 32 31 30 29 29
70 69 68 66 65 65 65 67 67 67 68 69 68 66 65 63 62 60 58 56 55 53 50 47 46 44 42 40 38 37 35 33 32 32 31 31 30 29
68 66 64 63 62 61 61 62 63 64 65 66 66 66 65 62 61 59 57 55 53 51 49 47 45 43 41 39 38 36 35 34 33 32 31 31 30 30
62 60 59 58 57 57 57 58 59 61 61 61 62 62 62 60 58 57 55 53 51 48 46 45 43 42 40 38 37 36 35 34 33 32 32 31 31 31
55 53 52 52 52 52 54 54 55 56 56 57 57 57 56 56 55 53 52 51 50 48 45 44 42 41 39 38 37 36 35 35 34 33 32 32 32 32
49 48 47 47 47 47 48 49 50 51 51 52 52 52 52 51 51 49 48 47 46 45 44 43 41 39 38 37 36 35 35 35 34 33 32 32 32 31
42 42 41 41 41 41 42 43 44 46 46 48 48 48 47 47 47 46 46 45 43 42 42 41 40 39 38 36 36 36 35 35 34 33 33 32 31 31
36 36 36 36 36 36 37 38 39 40 41 42 43 44 45 46 45 44 44 43 42 41 40 40 39 39 37 36 35 35 35 34 34 34 33 32 32 31
31 30 31 31 32 33 33 34 35 36 37 38 40 41 41 43 43 43 42 41 41 40 40 40 39 38 37 36 35 35 35 34 33 33 33 32 32 31
28 27 26 27 28 30 30 31 32 34 34 36 37 38 39 40 41 42 42 41 40 40 40 39 38 37 36 35 35 34 34 33 33 33 32 32 32 31
Wind_Direction
256 256 258 258 259 260 261 262 264 264 264 265 265 266 266 268 269 270 271 273 274 274 275 276 277 278 279 282 284 286 289 291 294 297 299 301 303 304
257 256 258 259 259 260 261 263 265 265 265 266 267 267 267 268 269 270 271 273 274 275 274 275 276 276 277 280 281 284 287 290 292 295 298 299 300 301
257 258 259 260 260 261 263 265 266 266 267 268 267 267 267 268 269 269 270 270 272 272 273 273 274 274 276 278 281 283 286 289 291 294 296 297 297 298
258 258 260 260 260 262 264 264 264 266 267 268 267 267 267 268 268 268 269 269 269 269 271 271 272 273 275 277 280 282 285 287 290 293 294 295 295 295
262 262 262 262 262 263 264 264 264 265 265 266 266 266 266 267 267 268 268 267 268 269 270 270 271 273 274 275 277 280 283 286 288 290 291 292 292 291
264 264 265 265 264 263 263 263 264 264 264 265 265 265 265 265 266 266 265 266 268 269 269 269 271 272 272 273 275 277 280 283 285 287 288 289 288 287
266 265 265 265 265 264 264 264 264 264 264 264 264 263 264 265 265 265 265 265 266 267 268 269 270 271 271 273 274 275 278 280 282 284 285 285 284 283
268 268 267 265 265 266 265 264 263 263 263 263 263 263 263 263 263 263 263 263 264 265 266 267 268 269 270 271 272 273 275 278 280 281 282 282 280 279
269 268 266 265 265 264 264 263 263 262 262 262 262 262 261 260 260 261 261 261 262 263 264 265 266 267 269 270 271 272 274 275 277 278 278 278 276 275
268 267 266 265 265 264 264 263 262 261 261 260 260 259 259 259 259 259 259 260 260 260 261 262 263 265 266 267 268 270 272 273 274 275 275 274 272 270
270 268 267 266 266 265 264 263 262 260 259 259 258 257 257 258 258 257 257 257 257 257 258 260 260 261 263 265 266 268 269 270 270 271 271 270 268 265
271 270 268 267 266 266 265 263 261 259 256 256 255 254 254 254 254 254 254 255 255 256 256 257 258 259 261 262 263 264 265 266 266 267 266 265 263 261
272 271 269 268 267 265 264 261 259 257 254 253 252 251 251 251 251 252 252 252 253 254 255 255 256 257 258 259 259 260 262 263 263 263 262 261 259 257
274 272 269 268 266 264 262 259 257 254 252 250 250 249 248 249 249 249 249 250 250 251 252 252 253 254 255 255 255 257 258 259 259 259 258 256 255 253
275 273 271 268 265 262 260 257 255 253 251 249 248 247 247 247 247 247 248 248 248 248 249 250 251 252 252 253 253 253 255 254 254 255 254 252 250 250
276 273 270 267 264 260 257 255 252 250 250 248 247 246 246 246 245 245 246 247 247 246 247 247 247 248 248 249 249 250 251 250 250 251 250 249 248 248
277 274 270 267 263 259 255 252 250 248 247 247 246 245 245 244 244 244 244 244 244 244 244 243 244 244 245 245 246 247 248 247 247 247 247 247 247 247
275 272 269 266 262 258 254 251 249 247 246 245 244 243 243 243 242 242 241 241 241 241 241 242 242 242 241 242 242 244 245 244 244 245 244 245 246 246
275 271 267 264 260 257 254 251 248 246 244 243 242 240 239 238 238 237 237 237 238 238 239 239 239 238 237 238 240 241 242 242 242 242 242 244 245 245
276 270 265 261 257 254 252 249 246 243 242 240 238 236 234 233 232 232 232 232 233 234 234 234 233 233 233 236 238 240 240 240 240 240 241 243 244 244
276 270 263 258 253 251 248 246 243 240 239 237 234 232 230 229 228 227 227 227 228 229 229 229 229 230 232 235 237 239 238 238 238 239 240 242 243 243
276 270 263 256 251 248 245 243 240 238 235 233 229 227 225 224 223 223 223 224 225 225 226 226 227 229 232 233 234 235 235 236 237 238 239 241 242 242
274 268 262 256 250 245 242 240 237 234 231 227 224 223 222 220 219 219 220 220 221 222 223 224 226 227 229 230 231 232 233 234 236 237 239 240 240 240
Height
5694 5696 5698 5699 5701 5702 5703 5704 5706 5707 5709 5710 5710 5711 5711 5711 5712 5712 5713 5713 5713 5713 5713 5713 5713 5713 5713 5712 5712 5711 5710 5709 5708 5706 5704 5702 5700 5698
5682 5684 5686 5687 5688 5689 5691 5692 5693 5694 5696 5698 5698 5699 5699 5699 5700 5700 5701 5701 5701 5701 5702 5702 5702 5702 5702 5702 5702 5701 5701 5700 5698 5697 5696 5694 5692 5690
5670 5671 5673 5674 5675 5676 5677 5679 5680 5681 5682 5684 5684 5685 5685 5687 5687 5688 5688 5689 5689 5689 5690 5690 5691 5691 5691 5692 5692 5691 5691 5690 5689 5688 5686 5685 5684 5682
5657 5658 5659 5660 5661 5662 5663 5665 5666 5667 5668 5670 5671 5671 5672 5673 5674 5675 5675 5676 5676 5677 5678 5678 5679 5680 5680 5681 5681 5681 5681 5680 5679 5678 5677 5676 5675 5673
5643 5644 5645 5645 5646 5647 5649 5650 5651 5652 5653 5655 5656 5657 5659 5660 5661 5661 5662 5663 5663 5664 5665 5666 5667 5668 5669 5670 5670 5670 5670 5670 5670 5669 5668 5667 5666 5665
5629 5629 5630 5630 5631 5632 5633 5634 5635 5636 5637 5639 5641 5642 5644 5645 5646 5648 5648 5649 5651 5652 5653 5654 5655 5656 5657 5658 5659 5659 5659 5659 5659 5658 5658 5657 5657 5656
5613 5613 5613 5614 5614 5615 5616 5617 5618 5620 5621 5622 5624 5626 5628 5630 5632 5633 5634 5635 5637 5639 5640 5641 5643 5644 5646 5646 5647 5648 5648 5648 5648 5648 5648 5648 5647 5647
5597 5596 5595 5596 5596 5597 5598 5599 5600 5602 5604 5605 5607 5609 5612 5614 5615 5617 5619 5621 5624 5626 5627 5629 5630 5632 5633 5634 5635 5636 5637 5638 5638 5638 5638 5638 5638 5638
5577 5577 5577 5576 5576 5577 5578 5579 5581 5582 5584 5587 5589 5591 5594 5596 5598 5601 5603 5606 5609 5611 5613 5616 5617 5619 5621 5622 5624 5625 5626 5627 5627 5628 5628 5629 5629 5629
5556 5556 5556 5556 5555 5556 5557 5558 5560 5562 5564 5566 5569 5572 5575 5577 5581 5584 5587 5590 5593 5596 5599 5602 5604 5606 5608 5610 5612 5613 5614 5616 5617 5618 5618 5619 5620 5620
5533 5533 5533 5533 5533 5533 5534 5536 5538 5541 5542 5545 5548 5551 5555 5558 5562 5565 5569 5573 5577 5581 5584 5588 5590 5593 5595 5597 5599 5601 5603 5605 5606 5607 5609 5610 5610 5611
5510 5509 5508 5508 5508 5507 5508 5511 5514 5517 5519 5522 5526 5530 5534 5538 5542 5547 5552 5556 5560 5565 5569 5573 5576 5579 5582 5585 5587 5590 5592 5594 5595 5597 5599 5600 5601 5602
5483 5482 5481 5480 5480 5481 5482 5484 5488 5491 5494 5499 5504 5508 5514 5519 5524 5528 5534 5539 5544 5549 5554 5558 5562 5565 5569 5572 5575 5578 5580 5583 5585 5587 5589 5590 5592 5593
5456 5455 5454 5452 5453 5454 5455 5458 5461 5464 5469 5475 5481 5487 5493 5499 5504 5510 5515 5521 5527 5533 5538 5543 5548 5552 5556 5560 5563 5566 5569 5572 5574 5576 5579 5581 5582 5584
5428 5427 5426 5426 5426 5428 5430 5432 5436 5440 5445 5451 5458 5466 5472 5478 5484 5491 5497 5504 5511 5517 5523 5529 5534 5539 5543 5547 5551 5554 5558 5561 5563 5566 5569 5571 5573 5576
5401 5401 5400 5400 5401 5403 5405 5408 5412 5417 5423 5429 5436 5444 5451 5458 5465 5473 5481 5488 5495 5502 5508 5514 5520 5525 5530 5535 5539 5543 5546 5550 5553 5556 5559 5561 5564 5566
5377 5377 5377 5377 5378 5380 5383 5387 5391 5396 5402 5409 5416 5424 5432 5440 5448 5456 5465 5472 5480 5488 5494 5500 5506 5512 5517 5523 5527 5531 5535 5539 5542 5545 5549 5551 5554 5557
5356 5356 5356 5356 5358 5360 5364 5368 5372 5378 5384 5390 5398 5406 5414 5423 5432 5440 5449 5457 5466 5473 5480 5487 5493 5499 5505 5511 5516 5520 5524 5528 5532 5535 5538 5542 5545 5547
5337 5337 5338 5339 5340 5343 5346 5350 5356 5361 5367 5374 5382 5390 5399 5407 5416 5425 5434 5443 5451 5460 5467 5474 5481 5487 5493 5499 5504 5509 5513 5517 5521 5525 5528 5532 5535 5538
5320 5320 5322 5323 5325 5328 5332 5336 5341 5346 5352 5359 5367 5375 5384 5393 5402 5412 5421 5430 5439 5447 5455 5462 5469 5476 5482 5488 5493 5498 5503 5507 5511 5515 5518 5522 5525 5529
5307 5306 5308 5310 5312 5316 5319 5324 5328 5334 5340 5347 5354 5363 5371 5380 5390 5400 5409 5418 5427 5435 5443 5451 5457 5464 5470 5477 5483 5488 5492 5496 5501 5505 5509 5512 5516 5519
5295 5295 5296 5298 5301 5305 5308 5313 5318 5323 5329 5336 5343 5351 5360 5369 5378 5388 5398 5407 5416 5424 5432 5439 5446 5454 5460 5467 5472 5477 5482 5486 5491 5495 5499 5503 5506 5510
5286 5286 5287 5289 5292 5295 5299 5303 5308 5314 5320 5326 5334 5342 5350 5359 5369 5378 5388 5397 5406 5414 5421 5429 5437 5444 5450 5456 5462 5467 5472 5476 5481 5485 5490 5493 5497 5500